LETO

Madrid/Torrejón

Airport
ICAO code
LETO
Summary
ICAO Region
EUR
ICAO Territory
Location

Torrejón de Ardoz,

Coordinates
40° 29' 48" N , 3° 26' 45" W
KCC
Airport CFIT
Altimeter Temperature Error Correction
Metar
Observation
LETO 230500Z 02005KT CAVOK 05/01 Q1015 NOSIG
Station
Madrid / Torrejon
Date/Time
2023-03-23 05:00:00
Wind direction
20°
Wind speed
05 kts
Lowest cloud amount
clouds and visibility OK
Temperature
5°C
Dew point
1°C
Humidity
75%
QNH
1015 hPa
Weather condition
n/a

Description

Madrid-Torrejón Airport (IATA: TOJ) is a commercial airport in Spain. It is a joint-use facility between the Spanish Ministry of Defence and the Ministry of Public Works. The civil part is dedicated primarily to executive and private aviation. The airport is located 24 km northeast of Madrid, 8 km west of Alcalá de Henares, and 1.6 km NE of Torrejón de Ardoz.

Climatology

"Continental" Mediterranean climate - a variation fo the Mediterranean Climate with characteristics of a continental climate due to altitude and limited influence of the sea (Köppen climate classification Csa) - cool winters due to altitude, including sporadic snowfalls and minimum temperatures often below freezing. Summer tends to be hot and dry with significant diurnal temperature range.

Runways

Designator Length Width Surface Rops
5/23 3658 66 ASP Yes/Yes

Airport map

Aerial View

SKYbrary Partners:

Safety knowledge contributed by: